This is the latest recevied weather packets stored in our database for station/object KK4WXG. If no packets are shown the sender has not sent any weather packets the latest 10 day(s).
| Time | Temp. | Humidity | Pressure | Rain* | Wind** | Luminosity | Snow |
|---|---|---|---|---|---|---|---|
| 1778109009 | 19.44° C | 82% | 1008.2 hPa | 0 mm | - | 11 W/m² | - |
| 1778108704 | 20° C | 83% | 1008.1 hPa | 0 mm | - | 6 W/m² | - |
| 1778108401 | 20° C | 82% | 1008.3 hPa | 0 mm | - | 4 W/m² | - |
| 1778108099 | 20° C | 82% | 1008 hPa | 0 mm | - | 9 W/m² | - |
| 1778107795 | 20° C | 81% | 1008.1 hPa | 0 mm | - | 7 W/m² | - |
| 1778107492 | 20.56° C | 80% | 1008.1 hPa | 0 mm | - | 8 W/m² | - |
| 1778107188 | 20.56° C | 78% | 1008 hPa | 0 mm | - | 17 W/m² | - |
| 1778106884 | 20.56° C | 79% | 1008 hPa | 0 mm | - | 43 W/m² | - |
| 1778106582 | 20.56° C | 79% | 1007.8 hPa | 0 mm | - | 40 W/m² | - |
| 1778106278 | 20.56° C | 79% | 1008.1 hPa | 0 mm | - | 100 W/m² | - |
| 1778105975 | 21.11° C | 78% | 1007.8 hPa | 0 mm | - | 135 W/m² | - |
| 1778105672 | 21.11° C | 77% | 1008 hPa | 0 mm | - | 186 W/m² | - |
| 1778105370 | 21.11° C | 76% | 1008.1 hPa | 0 mm | - | 232 W/m² | - |
| 1778105065 | 21.67° C | 76% | 1007.6 hPa | 0 mm | - | 302 W/m² | - |
| 1778104762 | 20.56° C | 79% | 1007.7 hPa | 0 mm | - | 298 W/m² | - |
| 1778104458 | 20.56° C | 77% | 1007.8 hPa | 0 mm | - | 209 W/m² | - |
| 1778104154 | 20.56° C | 79% | 1007.8 hPa | 0 mm | - | 241 W/m² | - |
| 1778103851 | 20.56° C | 78% | 1007.6 hPa | 0 mm | - | 138 W/m² | - |
| 1778103549 | 20.56° C | 78% | 1008.1 hPa | 0 mm | - | 127 W/m² | - |
| 1778103246 | 20° C | 79% | 1007.9 hPa | 0 mm | - | 106 W/m² | - |
| 1778102944 | 20° C | 80% | 1007.9 hPa | 0 mm | - | 59 W/m² | - |
| 1778102639 | 20° C | 79% | 1007.7 hPa | 0 mm | - | 87 W/m² | - |
| 1778102334 | 20.56° C | 79% | 1007.7 hPa | 0 mm | - | 41 W/m² | - |
| 1778102031 | 20.56° C | 79% | 1007.4 hPa | 0 mm | - | 75 W/m² | - |
| 1778101728 | 20.56° C | 79% | 1007.5 hPa | 0 mm | - | 109 W/m² | - |
* Rain latest hour (hover to see other rain measurements)
** Current wind speed in m/s (hover to see current wind gust speed)